DC1RS Weather Reports


time (UTC)temp
C
wind
direction
speed
KPH
gust
KPH
rain 1hr
cm
rain 24hr
cm
rain mn
cm
humidity
%
barometer
mb
20260507065751 12 241 4.8 12.9 0.00 0.00 0.00 74 1012.8
20260507065250 12 252 6.4 17.7 0.00 0.00 0.00 74 1012.9
20260507064721 13 253 11.3 22.5 0.00 0.00 0.00 73 1013.1
20260507064221 13 167 9.7 14.5 0.00 0.00 0.00 73 1013.1
20260507063651 12 293 3.2 11.3 0.00 0.00 0.00 74 1013.2
20260507063121 12 233 4.8 12.9 0.00 0.00 0.00 74 1013.1
20260507062811 12 258 1.6 9.7 0.00 0.00 0.00 76 1012.9
20260507062020 12 240 6.4 20.9 0.00 0.00 0.00 76 1012.8
20260507061450 12 247 6.4 11.3 0.00 0.00 0.00 77 1012.8
20260507060921 12 232 3.2 6.4 0.00 0.00 0.00 77 1012.5
20260507060421 12 265 9.7 12.9 0.00 0.00 0.00 79 1012.5
20260507060141 12 264 3.2 9.7 0.00 0.00 0.00 78 1012.4
20260507055351 12 239 3.2 9.7 0.00 0.00 0.00 79 1012.6
20260507054850 12 206 1.6 4.8 0.00 0.00 0.00 79 1012.5
20260507054321 11 251 0.0 6.4 0.00 0.00 0.00 78 1012.2
20260507053750 11 220 8.0 12.9 0.00 0.00 0.00 79 1012.6
20260507053441 11 217 3.2 4.8 0.00 0.00 0.00 81 1012.4
20260507052650 11 221 3.2 6.4 0.00 0.00 0.00 81 1012.3
20260507052150 11 199 3.2 4.8 0.00 0.00 0.00 86 1012.3
20260507051651 11 141 0.0 1.6 0.00 0.00 0.00 86 1012.4
20260507051121 11 244 3.2 4.8 0.00 0.00 0.00 84 1012.3
20260507050841 11 151 0.0 1.6 0.00 0.00 0.00 85 1012.2
20260507050051 11 176 1.6 3.2 0.00 0.00 0.00 85 1012.3
20260507045521 11 125 1.6 3.2 0.00 0.00 0.00 86 1012.4
20260507045021 11 112 1.6 3.2 0.00 0.00 0.00 86 1012.1
20260507044451 11 116 3.2 3.2 0.00 0.00 0.00 88 1012.2
20260507043921 10 127 3.2 4.8 0.00 0.00 0.00 90 1012.0
20260507043642 10 127 3.2 4.8 0.00 0.00 0.00 91 1011.9
20260507042851 10 105 1.6 1.6 0.00 0.00 0.00 91 1011.9
20260507042321 9 104 0.0 1.6 0.00 0.00 0.00 92 1011.7
20260507041751 9 110 1.6 1.6 0.00 0.00 0.00 92 1011.6
20260507041251 9 225 0.0 0.0 0.00 0.00 0.00 92 1011.5
20260507041011 9 211 0.0 0.0 0.00 0.00 0.00 91 1011.2
20260507040250 9 210 0.0 0.0 0.00 0.00 0.00 91 1011.2
20260507035750 9 261 0.0 0.0 0.00 0.00 0.00 91 1011.3
20260507035220 9 204 0.0 0.0 0.00 0.00 0.00 92 1011.2
20260507034651 9 205 0.0 3.2 0.00 0.00 0.00 92 1011.2
20260507034342 9 175 1.6 1.6 0.00 0.00 0.00 93 1011.3
20260507033551 9 150 0.0 1.6 0.00 0.00 0.00 93 1011.1
20260507033051 9 150 0.0 1.6 0.00 0.00 0.00 94 1011.2
20260507032550 9 148 0.0 1.6 0.00 0.00 0.00 94 1011.2
20260507032311 9 142 1.6 3.2 0.00 0.00 0.00 94 1011.1
20260507031521 9 127 1.6 3.2 0.00 0.00 0.00 94 1011.2
20260507030951 9 100 0.0 0.0 0.00 0.00 0.00 93 1011.1
20260507030421 9 100 0.0 1.6 0.00 0.00 0.00 94 1010.8
20260507025921 9 130 0.0 1.6 0.00 0.00 0.00 94 1011.1
20260507025641 9 135 1.6 1.6 0.00 0.00 0.00 93 1011.1
20260507024851 9 138 0.0 0.0 0.00 0.00 0.00 92 1011.1
20260507024321 9 138 0.0 0.0 0.00 0.00 0.00 92 1011.1
20260507023751 9 154 1.6 1.6 0.00 0.00 0.00 91 1011.1
20260507023251 9 131 3.2 3.2 0.00 0.00 0.00 90 1011.2
20260507022721 9 240 0.0 1.6 0.00 0.00 0.00 90 1011.0
20260507022440 10 242 0.0 1.6 0.00 0.00 0.00 89 1011.0
20260507021651 9 213 1.6 3.2 0.00 0.00 0.00 90 1010.9
20260507021121 9 231 1.6 1.6 0.00 0.00 0.00 90 1010.5
20260507020621 10 214 1.6 1.6 0.00 0.00 0.00 89 1010.3
20260507020121 10 242 0.0 1.6 0.00 0.00 0.00 89 1010.5
20260507015811 10 236 0.0 1.6 0.00 0.00 0.00 89 1010.3
20260507015051 10 231 0.0 1.6 0.00 0.00 0.00 89 1010.4
20260507014521 10 217 3.2 4.8 0.00 0.00 0.00 89 1010.4
20260507013951 10 204 1.6 3.2 0.00 0.00 0.00 89 1010.2
20260507013421 10 205 0.0 1.6 0.00 0.00 0.00 89 1010.1
20260507012851 10 218 0.0 1.6 0.00 0.00 0.00 89 1010.0
20260507012541 10 215 3.2 4.8 0.00 0.00 0.00 89 1010.2
20260507011821 10 217 0.0 1.6 0.00 0.00 0.00 89 1010.1
20260507011251 10 276 0.0 1.6 0.00 0.00 0.00 88 1009.9
20260507010750 10 278 0.0 1.6 0.00 0.00 0.00 88 1009.8
20260507010221 10 283 0.0 0.0 0.00 0.00 0.00 87 1009.9
20260507005912 10 284 0.0 1.6 0.00 0.00 0.00 87 1009.9
20260507005121 10 302 0.0 1.6 0.00 0.00 0.00 86 1009.9
20260507004621 10 295 0.0 1.6 0.00 0.00 0.00 86 1010.0
20260507004051 10 254 3.2 9.7 0.00 0.00 0.00 86 1010.0
20260507003522 11 257 6.4 9.7 0.00 0.00 0.00 86 1009.8
20260507002951 11 277 4.8 9.7 0.00 0.00 0.00 87 1009.8
20260507001921 11 247 4.8 6.4 0.00 0.00 0.00 86 1009.5
20260507001421 11 264 3.2 9.7 0.00 0.00 0.00 86 1009.8
20260507000921 11 226 1.6 6.4 0.00 0.00 0.00 86 1009.4
20260507000421 11 263 1.6 4.8 0.00 0.00 0.00 86 1009.5
20260507000141 11 242 0.0 4.8 0.00 0.00 0.00 86 1009.6
20260506235421 11 249 3.2 6.4 0.00 0.00 0.00 85 1009.6
20260506234850 12 265 3.2 4.8 0.00 0.00 0.00 85 1009.5
20260506234321 12 254 6.4 14.5 0.00 0.00 0.00 85 1009.4
20260506233750 12 239 3.2 12.9 0.00 0.00 0.00 84 1009.6
20260506233221 12 269 8.0 16.1 0.00 0.00 0.00 85 1009.2
20260506232650 12 290 6.4 9.7 0.00 0.00 0.00 86 1009.2
20260506232150 12 285 6.4 12.9 0.00 0.00 0.00 86 1009.1
20260506231621 12 222 8.0 12.9 0.00 0.00 0.00 87 1009.2
20260506231311 12 259 9.7 14.5 0.00 0.00 0.00 87 1009.3
20260506230551 12 242 8.0 12.9 0.00 0.00 0.00 87 1009.4
20260506230051 12 263 8.0 17.7 0.00 0.00 0.00 87 1009.4
20260506225521 12 282 8.0 14.5 0.00 0.00 0.00 87 1009.2
20260506225021 12 229 6.4 9.7 0.00 0.00 0.00 87 1009.4
20260506224710 12 241 6.4 12.9 0.00 0.00 0.00 86 1009.2
20260506223921 12 263 8.0 14.5 0.00 0.00 0.00 86 1009.0
20260506223421 12 253 8.0 12.9 0.00 0.00 0.00 86 1008.9
20260506222850 12 266 11.3 20.9 0.00 0.00 0.00 87 1008.9
20260506222321 12 246 8.0 12.9 0.00 0.00 0.00 87 1008.9
20260506222010 12 241 12.9 17.7 0.00 0.00 0.00 87 1009.0
20260506221221 12 278 12.9 17.7 0.00 0.00 0.00 88 1008.8
20260506220651 12 259 11.3 16.1 0.00 0.00 0.00 89 1008.6
20260506220150 12 245 9.7 12.9 0.00 0.00 0.00 88 1008.7
20260506215620 12 261 8.0 16.1 0.00 0.00 0.46 88 1008.5
20260506215311 12 263 4.8 6.4 0.00 0.00 0.46 89 1008.5
20260506214550 12 263 4.8 11.3 0.00 0.00 0.46 89 1008.5
20260506214050 12 224 3.2 9.7 0.00 0.00 0.46 88 1008.3
20260506213521 12 264 6.4 6.4 0.00 0.00 0.46 88 1008.3
20260506212950 12 242 4.8 11.3 0.00 0.00 0.46 88 1008.0
20260506212710 12 276 3.2 17.7 0.00 0.00 0.46 88 1008.1
20260506211920 12 245 9.7 14.5 0.00 0.00 0.46 87 1008.3
20260506211420 12 267 4.8 9.7 0.00 0.00 0.46 86 1008.3
20260506210850 12 274 6.4 11.3 0.00 0.00 0.46 86 1008.1
20260506210350 12 271 6.4 14.5 0.00 0.00 0.46 86 1008.0
20260506210112 12 277 4.8 14.5 0.00 0.00 0.46 86 1008.0
20260506205320 12 259 8.0 20.9 0.00 0.00 0.46 86 1007.9
20260506204820 13 292 9.7 12.9 0.00 0.00 0.46 86 1007.9
20260506204250 13 290 8.0 14.5 0.00 0.00 0.46 86 1007.7
20260506203750 13 296 3.2 20.9 0.00 0.00 0.46 85 1007.8
20260506203511 13 252 14.5 22.5 0.00 0.00 0.46 85 1007.9
20260506202721 13 243 11.3 16.1 0.00 0.00 0.46 85 1007.7
20260506202220 13 202 9.7 17.7 0.00 0.00 0.46 85 1007.8
20260506201650 13 240 20.9 25.7 0.00 0.00 0.46 85 1007.6
20260506201121 13 266 19.3 24.1 0.00 0.00 0.46 85 1007.3
20260506200550 13 313 12.9 20.9 0.00 0.00 0.46 85 1007.5
20260506200050 13 310 14.5 29.0 0.00 0.00 0.46 85 1007.3
20260506195740 13 253 9.7 22.5 0.00 0.00 0.46 86 1007.1
20260506194950 13 249 12.9 22.5 0.00 0.00 0.46 86 1007.2
20260506194450 13 288 12.9 27.4 0.00 0.00 0.46 86 1007.0
20260506193920 13 243 16.1 20.9 0.00 0.00 0.46 85 1006.8
20260506193420 13 257 8.0 24.1 0.00 0.00 0.46 84 1006.8
20260506193111 13 271 9.7 16.1 0.00 0.00 0.46 84 1006.4
20260506192321 13 204 11.3 14.5 0.00 0.00 0.46 87 1006.4
20260506191750 13 256 8.0 14.5 0.00 0.00 0.46 88 1006.1
20260506191510 13 247 8.0 20.9 0.00 0.00 0.46 89 1006.0
20260506190721 13 277 11.3 12.9 0.00 0.00 0.46 89 1005.8
20260506190220 13 279 11.3 27.4 0.00 0.00 0.46 89 1005.8
20260506185650 13 251 11.3 14.5 0.00 0.00 0.46 91 1005.3
20260506185340 13 272 1.6 3.2 0.00 0.00 0.46 90 1005.1
20260506184550 13 261 4.8 6.4 0.00 0.00 0.46 91 1004.7
20260506184050 13 299 1.6 3.2 0.00 0.00 0.46 91 1004.7
20260506183520 13 4 3.2 4.8 0.00 0.00 0.46 90 1004.7
20260506183020 13 6 1.6 3.2 0.00 0.00 0.46 91 1004.7
20260506182711 13 48 3.2 11.3 0.00 0.00 0.46 90 1004.6
20260506181920 13 66 6.4 12.9 0.03 0.00 0.46 91 1004.4
20260506181420 13 38 11.3 14.5 0.05 0.00 0.46 90 1003.9
20260506180851 13 40 8.0 11.3 0.08 0.00 0.46 91 1004.2
20260506180321 13 334 4.8 6.4 0.13 0.00 0.46 90 1004.5
20260506180011 13 318 3.2 6.4 0.20 0.00 0.46 89 1004.9
20260506175251 13 340 3.2 9.7 0.30 0.00 0.46 90 1004.9
20260506174721 13 339 1.6 4.8 0.36 0.00 0.46 89 1004.8
20260506174221 13 11 6.4 6.4 0.38 0.00 0.46 89 1005.1
20260506173650 13 16 3.2 4.8 0.41 0.00 0.46 88 1004.7
20260506173342 13 337 1.6 11.3 0.43 0.00 0.46 88 1004.8
20260506172551 13 332 8.0 11.3 0.43 0.00 0.46 87 1004.2
20260506172051 13 332 4.8 16.1 0.43 0.00 0.43 88 1004.4
20260506171521 13 316 6.4 27.4 0.41 0.00 0.43 86 1004.5
20260506170951 14 306 20.9 37.0 0.38 0.00 0.38 86 1004.9
20260506170909 14 274 27.4 35.4 0.33 0.00 0.36 86 1005.0
20260506170141 15 240 22.5 35.4 0.25 0.00 0.28 85 1005.1
20260506165420 16 266 32.2 51.5 0.15 0.00 0.15 81 1004.9
20260506164851 17 239 14.5 25.7 0.10 0.00 0.10 71 1004.3
20260506164321 17 285 9.7 25.7 0.08 0.00 0.08 68 1003.9
20260506163751 18 243 6.4 17.7 0.05 0.00 0.05 66 1003.3
20260506163511 19 320 6.4 16.1 0.03 0.00 0.05 64 1003.0
20260506162721 20 340 12.9 14.5 0.00 0.00 0.03 60 1003.0
20260506162221 20 270 11.3 22.5 0.00 0.00 0.00 54 1003.0
20260506161651 20 297 8.0 17.7 0.00 0.00 0.00 52 1002.7
20260506161122 20 297 12.9 20.9 0.00 0.00 0.00 52 1002.2
20260506160551 20 314 11.3 20.9 0.00 0.00 0.00 51 1002.1
20260506160310 21 345 9.7 14.5 0.00 0.00 0.00 52 1002.1
20260506155521 21 301 9.7 12.9 0.00 0.00 0.00 51 1001.9
20260506155021 21 329 11.3 14.5 0.00 0.00 0.00 51 1001.9
20260506154451 21 334 8.0 16.1 0.00 0.00 0.00 50 1001.6
20260506153921 21 344 8.0 11.3 0.00 0.00 0.00 51 1002.1
20260506153610 21 3 9.7 14.5 0.00 0.00 0.00 49 1002.1
20260506152851 22 318 6.4 14.5 0.00 0.00 0.00 49 1002.2
20260506152321 22 7 3.2 11.3 0.00 0.00 0.00 49 1002.4
20260506151821 22 317 4.8 16.1 0.00 0.00 0.00 47 1002.5
20260506151251 22 357 9.7 14.5 0.00 0.00 0.00 47 1002.4
20260506151010 22 335 3.2 12.9 0.00 0.00 0.00 47 1002.6
20260506150442 23 34 6.4 9.7 0.00 0.00 0.00 44 1002.6
20260506145651 23 37 11.3 12.9 0.00 0.00 0.00 41 1002.7
20260506145121 23 3 3.2 6.4 0.00 0.00 0.00 42 1002.8
20260506144621 23 1 3.2 6.4 0.00 0.00 0.00 42 1002.7
20260506144312 23 32 4.8 11.3 0.00 0.00 0.00 43 1003.0
20260506143551 24 223 0.0 4.8 0.00 0.00 0.00 41 1002.9
20260506143051 24 313 4.8 4.8 0.00 0.00 0.00 42 1002.8
20260506142521 23 312 4.8 9.7 0.00 0.00 0.00 42 1003.2
20260506142021 23 277 4.8 9.7 0.00 0.00 0.00 42 1003.1
20260506141711 23 216 0.0 1.6 0.00 0.00 0.00 43 1003.3
20260506140950 22 123 0.0 3.2 0.00 0.00 0.00 44 1003.4
20260506140450 22 133 3.2 9.7 0.00 0.00 0.00 46 1003.4
20260506135921 22 92 8.0 11.3 0.00 0.00 0.00 45 1003.5
20260506135421 22 46 4.8 6.4 0.00 0.00 0.00 43 1003.2
20260506135111 22 41 6.4 12.9 0.00 0.00 0.00 46 1003.5
20260506134321 22 324 1.6 3.2 0.00 0.00 0.00 45 1003.7
20260506133751 22 180 3.2 4.8 0.00 0.00 0.00 44 1003.6
20260506133251 23 79 8.0 11.3 0.00 0.00 0.00 44 1003.6
20260506132751 23 92 0.0 4.8 0.00 0.00 0.00 43 1003.7
20260506132512 23 114 6.4 11.3 0.00 0.00 0.00 45 1003.6
20260506131721 22 121 4.8 9.7 0.00 0.00 0.00 44 1003.6
20260506131221 22 172 6.4 11.3 0.00 0.00 0.00 45 1003.9
20260506130720 22 129 6.4 9.7 0.00 0.00 0.00 47 1004.0
20260506130151 22 142 12.9 16.1 0.00 0.00 0.00 45 1004.2
20260506125651 22 133 9.7 14.5 0.00 0.00 0.00 44 1004.0
20260506125342 22 121 6.4 20.9 0.00 0.00 0.00 45 1004.0
20260506124621 22 134 8.0 14.5 0.00 0.00 0.00 45 1004.0
20260506124051 22 138 9.7 16.1 0.00 0.00 0.00 47 1004.0
20260506123521 21 36 1.6 6.4 0.00 0.00 0.00 44 1004.2
20260506122951 22 121 0.0 3.2 0.00 0.00 0.00 45 1004.5
20260506122710 22 129 3.2 4.8 0.00 0.00 0.00 47 1004.2
20260506121921 21 132 0.0 6.4 0.00 0.00 0.00 48 1004.5
20260506121351 21 86 9.7 14.5 0.00 0.00 0.00 46 1005.0
20260506120851 22 109 9.7 16.1 0.00 0.00 0.00 45 1005.1
20260506120321 21 145 8.0 11.3 0.00 0.00 0.00 46 1005.2
20260506115820 21 86 1.6 11.3 0.00 0.00 0.00 46 1005.0
20260506115250 22 132 4.8 6.4 0.00 0.00 0.00 44 1005.2
20260506114721 22 49 3.2 6.4 0.00 0.00 0.00 46 1005.3
20260506114220 22 39 14.5 20.9 0.00 0.00 0.00 44 1005.3
20260506113911 22 91 12.9 16.1 0.00 0.00 0.00 44 1005.4
20260506113121 22 133 3.2 17.7 0.00 0.00 0.00 43 1005.6
20260506112550 22 144 12.9 17.7 0.00 0.00 0.00 47 1005.6
20260506112051 22 33 4.8 6.4 0.00 0.00 0.00 49 1005.7
20260506111521 22 154 0.0 3.2 0.00 0.00 0.00 47 1005.9
20260506111211 21 123 6.4 11.3 0.00 0.00 0.00 48 1005.9
20260506110421 21 141 4.8 6.4 0.00 0.00 0.00 47 1006.0
20260506105921 21 139 6.4 9.7 0.00 0.00 0.00 47 1006.2
20260506105421 21 129 6.4 14.5 0.00 0.00 0.00 51 1006.1
20260506104851 21 113 3.2 11.3 0.00 0.00 0.00 50 1006.1
20260506104321 21 294 1.6 3.2 0.00 0.00 0.00 49 1006.2
20260506103821 21 147 6.4 9.7 0.00 0.00 0.00 47 1006.3
20260506103321 21 140 4.8 12.9 0.00 0.00 0.00 49 1006.4
20260506103041 20 263 0.0 3.2 0.00 0.00 0.00 50 1006.6
20260506102251 20 221 0.0 4.8 0.00 0.00 0.00 50 1006.4
20260506101751 20 179 3.2 4.8 0.00 0.00 0.00 48 1006.5
20260506101221 21 117 4.8 11.3 0.00 0.00 0.00 49 1006.4
20260506100651 21 101 1.6 4.8 0.00 0.00 0.00 50 1006.4
20260506100411 21 150 3.2 3.2 0.00 0.00 0.00 55 1006.3
20260506095651 20 132 6.4 9.7 0.00 0.00 0.00 51 1006.5
20260506095121 20 141 1.6 3.2 0.00 0.00 0.00 55 1006.5
20260506094621 20 109 4.8 11.3 0.00 0.00 0.00 56 1006.6
20260506094051 19 102 1.6 11.3 0.00 0.00 0.00 56 1006.7
20260506093521 19 173 6.4 11.3 0.00 0.00 0.00 57 1006.9
20260506093241 18 246 1.6 12.9 0.00 0.00 0.00 59 1007.1
20260506092451 19 169 4.8 6.4 0.00 0.00 0.00 59 1007.2
20260506091921 18 174 1.6 3.2 0.00 0.00 0.00 61 1006.9
20260506091421 18 249 3.2 6.4 0.00 0.00 0.00 62 1007.1
20260506090851 17 83 3.2 6.4 0.00 0.00 0.00 64 1007.1
20260506090541 18 166 6.4 14.5 0.00 0.00 0.00 63 1007.2
20260506085821 18 124 9.7 12.9 0.00 0.00 0.00 64 1007.1
20260506085251 18 101 9.7 14.5 0.00 0.00 0.00 65 1007.0
20260506084721 18 51 6.4 6.4 0.00 0.00 0.00 65 1007.1
20260506084411 18 181 4.8 12.9 0.00 0.00 0.00 64 1007.2
20260506083621 18 122 9.7 12.9 0.00 0.00 0.00 66 1007.3
20260506083051 18 127 9.7 16.1 0.00 0.00 0.00 65 1007.3
20260506082521 18 134 6.4 17.7 0.00 0.00 0.00 66 1007.3
20260506081951 18 128 9.7 17.7 0.00 0.00 0.00 68 1007.5
20260506081711 17 168 6.4 9.7 0.00 0.00 0.00 68 1007.2
20260506080950 17 116 4.8 12.9 0.00 0.00 0.00 67 1007.5
20260506080450 17 90 6.4 16.1 0.00 0.00 0.00 69 1007.4
20260506072821 16 76 1.6 9.7 0.00 0.00 0.00 72 1007.3
20260506072251 16 116 4.8 6.4 0.00 0.00 0.00 72 1007.6
20260506071751 15 125 0.0 6.4 0.00 0.00 0.00 75 1007.5
20260506071223 15 97 4.8 9.7 0.00 0.00 0.00 74 1007.6
20260506070940 15 90 1.6 3.2 0.00 0.00 0.00 74 1007.9
20260506070151 16 79 4.8 9.7 0.00 0.00 0.00 73 1007.7